Wind_Speed
31 32 32 32 32 34 35 36 36 36 37 38 38 39 39 39 39 39 40 40 41 42 42 42 43 43 43 44 45 46 46 47 47 47 47 47 48 48 48 49 49 49 49 49
32 33 33 34 34 35 36 36 37 37 38 39 39 39 39 39 40 40 41 41 42 42 43 43 43 44 44 45 45 46 47 48 48 49 49 49 50 50 51 51 52 52 52 52
34 34 34 35 35 36 37 37 37 38 39 39 40 40 39 39 40 41 41 41 42 43 44 44 45 45 46 46 47 47 48 49 49 50 51 51 52 52 53 54 53 54 54 54
35 35 35 36 36 37 38 37 38 39 39 40 40 41 39 39 40 41 41 42 42 43 44 45 46 47 47 48 48 49 50 50 51 52 52 52 53 54 55 56 55 55 56 57
36 36 36 37 37 38 38 38 38 39 40 41 40 42 41 40 40 40 41 42 43 44 45 46 47 48 49 50 50 51 52 52 53 53 54 54 55 55 55 57 57 57 57 58
37 37 37 37 37 37 38 38 39 40 41 42 40 42 42 40 40 40 41 42 43 44 45 46 47 48 49 50 51 52 53 53 53 54 54 55 56 56 57 57 58 59 59 59
38 37 37 36 37 37 37 37 38 40 41 42 40 41 41 40 41 41 42 42 43 44 45 46 46 47 48 50 51 52 53 54 54 55 55 56 57 58 58 58 59 59 60 60
37 37 36 36 36 36 37 37 38 40 41 42 41 42 41 40 41 41 42 42 43 43 44 45 47 48 49 49 51 52 53 54 55 56 56 57 56 57 58 59 59 59 59 60
35 36 36 36 36 36 36 36 37 40 42 43 43 43 41 41 42 42 42 42 43 44 45 46 47 48 49 50 51 52 54 55 55 56 56 57 57 57 57 58 58 58 58 58
36 37 36 36 37 36 37 37 38 39 42 44 45 43 42 41 42 41 42 43 44 45 46 47 47 48 48 50 51 52 53 54 55 55 56 56 56 57 57 57 57 57 58 58
35 36 37 37 36 36 36 37 38 40 42 43 44 43 42 42 41 41 42 43 44 45 46 46 47 47 48 49 50 51 52 52 53 54 55 55 55 56 56 56 57 57 57 57
35 36 36 35 35 36 37 36 37 38 40 41 43 42 39 39 40 41 42 43 44 45 45 46 46 46 47 48 48 49 49 50 51 52 53 53 54 54 55 56 56 55 55 55
35 35 36 36 36 36 36 37 37 38 40 40 41 39 38 39 40 41 41 42 43 44 44 45 45 46 46 46 47 47 47 47 48 49 49 50 51 52 52 53 54 55 55 55
35 36 35 36 35 36 37 38 38 40 40 40 39 38 37 38 39 40 40 40 41 42 43 43 44 45 45 44 44 44 45 45 45 46 46 47 48 50 50 51 52 53 53 54
35 36 35 35 35 37 37 37 38 39 38 39 37 37 36 37 39 40 40 40 41 41 42 41 41 41 41 41 41 42 42 42 43 43 44 45 46 47 49 49 50 51 52 53
35 35 35 35 35 36 36 35 36 36 36 36 36 35 35 37 38 38 39 39 39 39 39 39 39 39 39 39 40 40 40 40 40 41 42 43 44 45 46 47 48 49 51 52
33 33 33 33 33 35 35 33 33 33 33 34 34 32 33 35 36 36 37 37 37 36 36 37 38 38 38 38 38 38 38 38 38 39 39 40 41 42 43 44 45 47 49 50
33 32 32 33 33 34 33 32 32 32 32 32 32 32 33 33 34 35 35 34 34 35 35 36 36 36 36 37 36 36 36 36 36 37 37 37 38 39 40 41 43 44 46 47
31 31 31 31 32 32 31 30 30 31 32 31 32 32 32 33 33 33 33 33 34 34 35 35 35 35 35 35 35 35 35 35 35 35 36 36 36 37 38 39 40 41 42 43
28 28 29 29 30 30 29 29 29 31 31 30 31 31 31 32 32 31 32 33 33 34 34 34 34 34 34 34 34 34 34 34 34 34 34 34 35 36 36 37 38 39 40 40
27 27 28 28 30 30 28 28 29 30 30 29 30 30 31 31 31 32 32 33 33 33 33 33 33 33 33 33 33 33 32 32 32 32 33 33 34 35 35 36 37 37 38 39
25 26 26 27 28 28 28 28 28 29 29 29 29 29 30 31 32 32 32 32 33 33 33 33 33 33 33 33 32 32 31 31 31 32 32 33 34 34 34 35 36 37 38 38
24 25 25 26 27 27 27 27 28 29 29 29 30 30 31 31 31 32 32 32 32 32 32 33 33 33 32 32 32 31 30 30 31 31 32 32 33 34 34 35 35 36 37 37
24 24 25 26 26 26 27 28 28 28 29 30 31 31 31 31 32 32 32 32 32 32 32 32 32 32 32 32 31 31 31 31 31 31 32 32 33 33 34 35 35 36 36 36
24 24 25 26 27 27 27 28 29 29 30 31 31 31 31 32 32 31 31 31 32 32 33 33 32 32 32 32 31 31 32 32 32 32 32 32 33 33 34 35 35 35 35 35
23 24 25 25 26 27 27 28 29 30 30 30 30 30 30 31 31 31 31 31 31 32 33 33 33 33 32 32 32 32 32 32 33 33 33 34 34 34 34 34 34 34 35 35
Wind_Direction
272 271 272 272 272 271 271 272 272 271 271 270 268 268 268 267 267 267 266 266 265 264 264 263 263 262 262 262 262 263 262 263 262 262 262 262 262 262 262 261 261 261 260 260
273 272 273 272 271 272 272 272 273 272 272 271 270 269 268 268 268 268 267 267 266 265 264 264 263 263 263 263 262 263 263 263 263 263 263 263 263 262 262 262 262 261 261 260
274 274 273 273 273 273 273 273 274 273 273 272 271 269 269 269 269 268 268 268 267 266 266 265 264 264 264 264 263 263 263 263 263 263 263 263 263 263 262 262 262 262 262 261
275 274 273 273 273 273 273 274 274 273 273 272 272 272 269 269 269 269 269 269 268 267 267 266 266 265 264 264 264 264 264 264 264 264 263 263 263 263 263 263 263 262 262 261
275 274 273 274 274 274 274 273 273 273 273 272 272 273 271 270 271 271 271 270 270 269 269 268 267 267 266 265 265 265 265 265 265 265 264 264 264 264 263 263 263 262 262 262
276 274 274 274 274 274 274 273 273 272 272 272 272 273 273 272 272 272 272 272 272 271 270 270 270 269 268 267 266 266 266 265 265 265 265 265 264 264 264 263 263 262 262 262
277 275 274 274 274 273 273 273 274 273 272 273 273 273 274 275 274 274 274 274 273 272 272 272 271 271 270 269 268 267 267 266 266 266 266 266 265 265 264 263 263 262 262 262
278 276 275 274 274 274 273 273 273 274 275 276 275 275 277 276 276 276 275 275 275 274 274 273 272 272 271 271 271 269 268 267 267 267 267 266 266 265 265 264 263 263 262 261
279 277 276 274 274 273 273 273 273 274 275 276 276 277 277 277 278 277 277 276 276 276 275 275 274 273 273 273 272 271 270 269 269 268 267 267 266 265 264 264 264 263 263 262
279 279 277 276 275 273 273 274 274 274 276 277 278 279 280 279 279 278 278 277 277 277 277 276 276 275 275 274 274 273 272 271 271 270 268 267 266 265 264 263 262 262 261 261
280 280 280 277 275 274 274 274 275 275 275 277 279 280 282 282 281 280 279 279 279 279 279 278 278 278 277 277 277 275 274 273 272 271 269 267 265 264 263 262 262 261 261 261
280 280 279 278 276 274 273 274 275 275 276 276 277 280 280 280 280 280 281 282 281 281 280 280 280 280 280 280 279 278 276 275 273 272 271 268 265 263 262 262 262 261 261 261
281 279 278 277 276 274 273 273 274 275 275 276 278 280 280 280 281 281 283 283 283 282 282 282 282 282 282 281 280 279 278 276 275 273 271 268 266 264 263 262 262 262 262 262
281 278 277 276 276 276 275 275 274 275 276 278 279 280 280 280 280 281 283 284 284 284 284 283 283 283 282 281 281 279 278 277 276 274 271 268 266 265 263 263 263 263 262 261
281 278 277 275 274 275 275 275 275 276 278 278 280 280 282 281 281 283 284 284 284 285 285 285 284 284 283 282 282 281 279 278 276 274 271 268 267 266 265 264 263 262 262 263
281 280 278 276 276 276 276 276 277 277 278 280 281 282 283 281 282 283 284 285 285 286 286 287 287 286 285 285 284 282 280 279 277 275 272 270 269 268 267 266 265 264 264 264
282 281 281 280 279 278 276 279 279 279 280 281 281 284 283 283 283 284 285 286 286 287 289 290 290 288 288 287 285 284 283 281 279 277 275 273 272 270 269 268 267 267 266 266
281 281 281 282 280 278 281 280 281 281 282 282 282 282 283 284 285 286 286 287 288 289 291 292 292 290 289 288 287 286 284 283 281 280 278 275 273 271 270 269 269 269 268 268
281 281 282 282 281 281 282 283 285 284 282 282 283 284 285 284 285 287 288 289 291 292 292 292 293 292 291 290 288 287 285 283 282 281 279 277 275 274 272 271 271 271 271 270
283 281 281 282 283 284 285 285 285 286 285 286 285 285 285 285 286 288 289 290 291 292 292 293 293 293 292 291 290 288 285 284 282 281 280 278 277 275 274 274 273 273 273 272
285 283 281 282 282 284 286 286 286 287 290 289 289 287 285 286 289 289 290 291 291 292 292 292 292 292 293 292 291 289 286 284 284 283 281 279 279 278 277 276 275 275 274 274
286 284 282 282 283 286 288 287 287 289 290 290 290 290 289 288 289 289 291 291 291 292 292 292 292 292 292 292 291 289 287 285 285 284 283 282 281 280 279 278 278 277 276 276
285 284 282 282 284 286 286 287 288 289 290 291 292 291 291 290 290 291 291 291 290 291 292 292 293 293 293 292 290 288 288 287 286 285 285 284 283 281 280 280 280 279 279 278
287 284 283 283 284 284 285 286 288 290 291 293 293 293 293 293 292 292 291 290 289 290 292 292 292 292 292 291 291 289 289 288 287 286 286 285 284 283 282 282 281 280 280 279
288 287 287 285 285 284 286 287 289 290 292 293 294 294 294 293 293 293 292 291 290 291 291 291 292 292 292 291 291 290 290 289 288 288 287 287 287 286 284 284 284 282 280 280
292 290 291 290 289 288 289 289 291 292 292 293 294 294 294 294 294 293 293 293 293 293 292 292 292 292 292 292 291 290 289 289 289 288 287 287 287 287 286 284 283 282 282 281
Height
5715 5715 5715 5714 5713 5712 5711 5710 5710 5710 5708 5708 5708 5708 5707 5707 5706 5706 5706 5705 5705 5705 5705 5705 5705 5705 5706 5706 5707 5708 5708 5709 5709 5709 5710 5710 5711 5711 5712 5713 5714 5714 5715 5717
5707 5706 5706 5704 5703 5702 5701 5700 5700 5699 5698 5697 5697 5697 5697 5696 5696 5696 5695 5695 5694 5694 5694 5694 5694 5694 5694 5695 5695 5696 5696 5696 5696 5697 5697 5697 5698 5698 5699 5700 5700 5701 5702 5704
5697 5697 5696 5695 5694 5692 5691 5691 5690 5689 5687 5686 5685 5685 5687 5686 5685 5684 5684 5683 5682 5682 5682 5682 5682 5682 5682 5683 5683 5683 5683 5683 5683 5683 5684 5684 5684 5685 5685 5686 5686 5687 5688 5689
5687 5687 5686 5684 5683 5682 5681 5681 5679 5677 5676 5675 5675 5673 5676 5675 5674 5673 5673 5671 5670 5670 5669 5669 5669 5669 5669 5669 5669 5670 5670 5670 5670 5670 5670 5670 5670 5671 5671 5671 5672 5673 5674 5674
5677 5676 5675 5674 5673 5671 5670 5669 5668 5666 5665 5664 5664 5661 5664 5664 5663 5662 5661 5660 5658 5658 5657 5656 5656 5655 5655 5655 5655 5655 5655 5655 5655 5655 5655 5655 5655 5656 5656 5656 5656 5657 5658 5659
5666 5665 5664 5663 5662 5661 5659 5658 5656 5655 5653 5652 5654 5651 5651 5652 5651 5650 5649 5647 5646 5645 5643 5642 5641 5641 5640 5640 5640 5640 5640 5640 5640 5640 5640 5640 5640 5640 5640 5640 5640 5641 5642 5643
5656 5655 5653 5652 5651 5650 5649 5648 5645 5643 5642 5641 5642 5639 5640 5640 5639 5638 5636 5635 5633 5631 5630 5628 5627 5626 5625 5625 5625 5624 5624 5624 5624 5624 5624 5624 5624 5623 5624 5624 5624 5625 5625 5626
5644 5644 5643 5642 5641 5640 5638 5637 5636 5633 5631 5630 5629 5628 5630 5629 5627 5625 5623 5622 5620 5618 5617 5615 5613 5612 5611 5610 5609 5609 5608 5608 5607 5607 5607 5607 5606 5606 5607 5607 5607 5608 5609 5609
5633 5633 5632 5631 5630 5629 5628 5627 5626 5623 5619 5618 5617 5617 5618 5617 5615 5613 5611 5609 5607 5605 5603 5601 5599 5598 5596 5595 5594 5592 5591 5591 5590 5589 5589 5589 5589 5589 5590 5590 5590 5591 5592 5593
5622 5622 5622 5620 5619 5618 5617 5616 5614 5611 5608 5606 5606 5606 5606 5604 5603 5601 5598 5596 5594 5592 5590 5587 5585 5583 5581 5579 5578 5576 5574 5574 5573 5572 5571 5571 5572 5572 5572 5573 5574 5574 5575 5576
5612 5610 5610 5610 5609 5608 5607 5606 5603 5600 5598 5596 5593 5596 5594 5592 5590 5588 5585 5583 5581 5578 5576 5573 5571 5568 5566 5564 5561 5559 5558 5557 5556 5555 5554 5554 5554 5555 5555 5556 5557 5558 5558 5559
5601 5599 5598 5598 5598 5596 5595 5594 5593 5591 5588 5585 5583 5586 5582 5580 5577 5575 5573 5570 5568 5565 5562 5560 5557 5554 5551 5549 5546 5544 5542 5540 5539 5538 5537 5537 5537 5538 5538 5539 5540 5541 5542 5543
5591 5589 5588 5587 5588 5586 5584 5583 5582 5579 5577 5574 5572 5575 5571 5569 5565 5563 5561 5558 5555 5552 5549 5546 5543 5540 5537 5534 5531 5529 5527 5525 5523 5522 5521 5521 5521 5521 5522 5523 5523 5524 5525 5527
5580 5578 5578 5577 5575 5573 5572 5572 5570 5567 5565 5563 5563 5562 5560 5557 5554 5551 5549 5546 5542 5540 5536 5533 5530 5526 5523 5520 5517 5515 5513 5511 5509 5507 5506 5505 5505 5506 5506 5507 5507 5508 5509 5510
5569 5568 5566 5565 5564 5562 5561 5560 5558 5556 5555 5553 5552 5550 5549 5545 5542 5540 5537 5534 5531 5528 5524 5520 5517 5513 5510 5507 5504 5502 5499 5497 5495 5493 5492 5491 5491 5491 5491 5491 5492 5492 5493 5494
5559 5557 5556 5555 5554 5551 5550 5549 5548 5546 5544 5542 5541 5540 5538 5534 5531 5529 5526 5523 5519 5516 5513 5509 5505 5501 5498 5495 5492 5489 5487 5484 5482 5480 5479 5478 5477 5477 5477 5477 5477 5478 5478 5479
5549 5547 5545 5544 5543 5540 5540 5541 5538 5536 5535 5532 5530 5530 5526 5524 5521 5518 5515 5512 5508 5505 5502 5498 5494 5490 5487 5484 5480 5478 5475 5472 5470 5468 5466 5465 5464 5463 5463 5463 5463 5463 5463 5464
5539 5537 5535 5534 5533 5530 5534 5531 5528 5526 5525 5522 5520 5518 5516 5513 5511 5508 5504 5501 5498 5495 5491 5488 5484 5480 5476 5473 5470 5467 5464 5461 5459 5457 5455 5453 5452 5451 5450 5450 5449 5449 5449 5449
5530 5528 5526 5524 5522 5521 5523 5521 5518 5516 5515 5512 5510 5508 5506 5503 5501 5498 5495 5491 5488 5485 5481 5477 5473 5470 5466 5463 5459 5457 5454 5451 5449 5446 5444 5442 5441 5440 5438 5438 5437 5436 5436 5435
5521 5519 5518 5516 5513 5513 5514 5512 5508 5507 5505 5503 5500 5498 5495 5493 5491 5489 5485 5482 5479 5475 5471 5468 5464 5460 5456 5453 5449 5446 5444 5441 5439 5436 5434 5432 5430 5429 5427 5426 5425 5424 5423 5422
5513 5511 5509 5507 5505 5504 5505 5502 5500 5499 5498 5494 5490 5488 5486 5483 5481 5479 5475 5472 5469 5465 5462 5458 5454 5451 5447 5443 5440 5437 5434 5431 5429 5426 5424 5422 5420 5418 5417 5415 5414 5412 5411 5410
5504 5502 5501 5499 5497 5498 5495 5493 5492 5490 5487 5484 5481 5479 5477 5474 5471 5468 5465 5462 5459 5456 5452 5448 5445 5442 5438 5434 5430 5427 5424 5422 5419 5416 5414 5412 5410 5407 5406 5404 5402 5401 5399 5398
5497 5496 5493 5492 5492 5489 5486 5484 5482 5480 5478 5475 5473 5470 5467 5464 5462 5459 5456 5452 5449 5446 5443 5439 5435 5432 5429 5425 5421 5418 5415 5412 5409 5407 5404 5402 5399 5397 5395 5393 5391 5389 5388 5386
5490 5487 5485 5483 5482 5480 5478 5476 5474 5471 5469 5466 5464 5461 5458 5455 5452 5449 5446 5442 5439 5436 5433 5429 5426 5423 5419 5416 5412 5409 5406 5403 5400 5397 5395 5392 5389 5387 5384 5382 5380 5378 5376 5374
5483 5480 5478 5476 5474 5472 5470 5468 5465 5463 5460 5457 5454 5451 5448 5445 5442 5439 5436 5433 5430 5426 5423 5420 5416 5413 5410 5406 5403 5400 5397 5394 5391 5388 5385 5382 5379 5377 5374 5371 5369 5367 5365 5362
5475 5473 5470 5468 5466 5464 5462 5459 5456 5454 5451 5448 5445 5442 5439 5436 5432 5429 5426 5423 5420 5417 5413 5410 5407 5403 5400 5397 5393 5390 5387 5384 5381 5378 5375 5372 5369 5366 5363 5360 5358 5355 5353 5351